"Pseudo-MPEC" for jMB9012

Created 2020 Nov 30 16:07:10 UT using Find_Orb

Click here for an explanation of pseudo-MPECs

 
 Astrometry: 
     jMB9012  C2020 11 09^60i*jW9kH3@Ugt0D(:HNjopOgF_Astrometry._O?NYc_MT.MB(J43
     jMB9012  C2020 11 09)c#m%!PtI$dredacted;?Nn,O-n4]gp*!C_cK'lTjI!IJQCt/bm^J43
     jMB9012  C2020 11 10VSg=!!i=KsrH2\sm('7Q)aU4^)xFP\V)It_$NNuy!m4)uclick[1J43
     jMB9012  C2020 11 10#s`ZLtUr?,.Oi1INiRVd+XX-Fa)'M`CF4I@-%mLe!!Tg%]V19AKSJ43
     jMB9012 KC2020 11 11$q:aSAGS?mBhgOmZ!26VAW5$3q.=CaunV\Gw]U*w_qL,,'?v7`SMB37
     jMB9012 KC2020 11 11@MiOD26s[lU(j8]`BZEn`RTgKP%e),]I3Lx29i+t[aV%Sn@PNexiB37
     jMB9012 KC2020 11 11qRVv(5aeAx4UKggVherer8k3HqforA7KEVI4(UjX]explanationB37

Station data:
(B37) Obs. de L' Ametlla del Valles, Barcelona  (N41.651215 E2.259340)  Spain.
(J43) Oukaïmeden Observatory, Marrakech  (N31.206440 W7.866460)  Morocco.
   Observer C. Rinner. Measurers C. Rinner, M. Ory. 0.5-m f/3 reflector + CCD.

Orbital elements:  jMB9012
   Perihelion 2020 Nov 4.424525 +/- 23.3 TT = 10:11:18 (JD 2459157.924525)
Epoch 2020 Nov 11.0 TT = JDT 2459164.5   Earth MOID: 0.3312   Ma: 0.0985
M   1.49814108 +/- 5.4              (J2000 ecliptic)          AutoNEOCP
n   0.22783767 +/- 0.106            Peri.    1.97731 +/- 20
a   2.65492556 +/- 0.822            Node    40.29701 +/- 0.42
e   0.5016458 +/- 0.129             Incl.   12.24875 +/- 2.5
P   4.33                   H 21.9   G  0.15   U 11.2  SR
q 1.32309326 +/- 0.0731    Q 3.98675786 +/- 2.04
From 7 observations 2020 Nov. 9-11 (45.7 hr); mean residual 0".28
Residuals in arcseconds: 
201109 J43  .15-  .39-    201110 J43  .15-  .25-    201111 B37  .14-  .05+    
201109 J43  .64+  .50+    201111 B37  .01+  .03-    
201110 J43  .35-  .14+    201111 B37  .14+  .01-    

Ephemerides (geocentric):
Date (UTC) HH   RA              Dec         delta   r     elong  mag " sig PA
---- -- -- --  -------------   -----------  ------ ------ -----  --- ---- ---
2020 11 30 16  02 32 24.667   +31 51 35.59  .39815 1.3518 152.5 21.6 4718  86
2020 11 30 17  02 32 25.468   +31 52 36.84  .39834 1.3519 152.4 21.6 4734  86
2020 11 30 18  02 32 26.275   +31 53 38.01  .39853 1.3519 152.4 21.6 4750  86
2020 11 30 19  02 32 27.088   +31 54 39.09  .39872 1.3520 152.4 21.6 4766  86
2020 11 30 20  02 32 27.906   +31 55 40.11  .39891 1.3521 152.3 21.6 4783  86
2020 11 30 21  02 32 28.729   +31 56 41.04  .39910 1.3522 152.3 21.6 4799  86
2020 11 30 22  02 32 29.558   +31 57 41.90  .39929 1.3523 152.3 21.6 4815  86
2020 11 30 23  02 32 30.392   +31 58 42.68  .39949 1.3524 152.2 21.6 4832  86
2020 12 01 00  02 32 31.231   +31 59 43.38  .39968 1.3525 152.2 21.6 4848  86
2020 12 01 01  02 32 32.076   +32 00 44.00  .39987 1.3526 152.2 21.6 4864  86
2020 12 01 02  02 32 32.926   +32 01 44.54  .40006 1.3527 152.1 21.6 4881  86
2020 12 01 03  02 32 33.781   +32 02 45.01  .40026 1.3528 152.1 21.6 4897  86
2020 12 01 04  02 32 34.642   +32 03 45.40  .40045 1.3528 152.1 21.6 4913  86
2020 12 01 05  02 32 35.508   +32 04 45.71  .40064 1.3529 152.0 21.6 4930  86
2020 12 01 06  02 32 36.380   +32 05 45.95  .40083 1.3530 152.0 21.6 4946  86
2020 12 01 07  02 32 37.257   +32 06 46.11  .40103 1.3531 152.0 21.6 4962  86
2020 12 01 08  02 32 38.139   +32 07 46.19  .40122 1.3532 151.9 21.6 4979  86
2020 12 01 09  02 32 39.027   +32 08 46.19  .40142 1.3533 151.9 21.6 4995  86
2020 12 01 10  02 32 39.920   +32 09 46.11  .40161 1.3534 151.9 21.6 5012  86
2020 12 01 11  02 32 40.819   +32 10 45.96  .40180 1.3535 151.8 21.6 5028  86
2020 12 01 12  02 32 41.723   +32 11 45.73  .40200 1.3536 151.8 21.6 5045  86
2020 12 01 13  02 32 42.632   +32 12 45.42  .40219 1.3537 151.7 21.6 5061  86
2020 12 01 14  02 32 43.547   +32 13 45.04  .40239 1.3538 151.7 21.6 5078  86
2020 12 01 15  02 32 44.467   +32 14 44.58  .40258 1.3539 151.7 21.6 5094  86
2020 12 01 16  02 32 45.393   +32 15 44.04  .40278 1.3540 151.6 21.6 5110  86
2020 12 01 17  02 32 46.324   +32 16 43.42  .40298 1.3540 151.6 21.6 5127  86
2020 12 01 18  02 32 47.260   +32 17 42.73  .40317 1.3541 151.6 21.6 5143  86
2020 12 01 19  02 32 48.202   +32 18 41.96  .40337 1.3542 151.5 21.6 5160  86
2020 12 01 20  02 32 49.149   +32 19 41.11  .40356 1.3543 151.5 21.6 5177  86
2020 12 01 21  02 32 50.101   +32 20 40.19  .40376 1.3544 151.5 21.6 5193  86
2020 12 01 22  02 32 51.059   +32 21 39.18  .40396 1.3545 151.4 21.6 5210  86
2020 12 01 23  02 32 52.023   +32 22 38.10  .40416 1.3546 151.4 21.6 5226  86
2020 12 02 00  02 32 52.992   +32 23 36.95  .40435 1.3547 151.4 21.6 5243  86
2020 12 02 01  02 32 53.966   +32 24 35.72  .40455 1.3548 151.3 21.6 5259  86
2020 12 02 02  02 32 54.946   +32 25 34.41  .40475 1.3549 151.3 21.6 5276  86
2020 12 02 03  02 32 55.931   +32 26 33.02  .40495 1.3550 151.3 21.6 5292  86
2020 12 02 04  02 32 56.921   +32 27 31.56  .40515 1.3551 151.2 21.6 5309  87
2020 12 02 05  02 32 57.917   +32 28 30.02  .40534 1.3552 151.2 21.6 5326  87
2020 12 02 06  02 32 58.918   +32 29 28.40  .40554 1.3553 151.2 21.6 5342  87
2020 12 02 07  02 32 59.925   +32 30 26.71  .40574 1.3554 151.1 21.6 5359  87
2020 12 02 08  02 33 00.937   +32 31 24.94  .40594 1.3554 151.1 21.6 5375  87
2020 12 02 09  02 33 01.955   +32 32 23.09  .40614 1.3555 151.1 21.6 5392  87
2020 12 02 10  02 33 02.978   +32 33 21.17  .40634 1.3556 151.0 21.6 5409  87
2020 12 02 11  02 33 04.006   +32 34 19.16  .40654 1.3557 151.0 21.6 5425  87
2020 12 02 12  02 33 05.040   +32 35 17.09  .40674 1.3558 150.9 21.7 5442  87
2020 12 02 13  02 33 06.080   +32 36 14.94  .40694 1.3559 150.9 21.7 5459  87
2020 12 02 14  02 33 07.124   +32 37 12.71  .40714 1.3560 150.9 21.7 5475  87
2020 12 02 15  02 33 08.175   +32 38 10.40  .40734 1.3561 150.8 21.7 5492  87